Location: Newark
(22.3060°N, 114.2134°E)
Time: 20:36:00
(UTC+00:00)

Vanguard 2 - Pass Details

Date: 09 August 2021
Orbit: 553 x 2937 km, 32.9° (Epoch: 27 September)

Event Time Altitude Azimuth Distance (km) Brightness Sun altitude
Rises 22:49:04 0° 299° (WNW) 2,748 9.9 10.4°
Reaches altitude 10° 22:51:05 10° 303° (WNW) 1,924 9.2 10.9°
Maximum altitude 22:55:18 63° 25° (NNE) 795 8.1 11.9°
Drops below altitude 10° 23:01:19 10° 106° (ESE) 2,729 11.7 13.2°
Sets 23:04:41 0° 109° (ESE) 4,038 12.3 14.0°
